Time,TemperatureF,DewpointF,PressureIn,WindDirection,WindDirectionDegrees,WindSpeedMPH,WindSpeedGustMPH,Humidity,HourlyPrecipIn,Conditions,Clouds,dailyrainin,SoftwareType,DateUTC
2013-10-24 00:13:00,63.0,45.0,30.04,SW,232,1.0,4.0,51,0.00,,,0.00,,2013-10-24 05:13:00,
2013-10-24 00:20:00,62.0,44.0,30.04,SSW,207,1.0,4.0,52,0.00,,,0.00,,2013-10-24 05:20:00,
2013-10-24 00:22:00,62.0,44.0,30.04,SW,231,1.0,3.0,52,0.00,,,0.00,,2013-10-24 05:22:00,
2013-10-24 00:43:00,62.0,44.0,30.04,SSW,207,1.0,4.0,52,0.00,,,0.00,,2013-10-24 05:43:00,
2013-10-24 00:53:00,62.0,44.0,30.04,SSW,207,1.0,4.0,52,0.00,,,0.00,,2013-10-24 05:53:00,
2013-10-24 01:03:00,62.0,44.0,30.04,SSW,207,1.0,4.0,52,0.00,,,0.00,,2013-10-24 06:03:00,
2013-10-24 01:12:00,62.0,44.0,30.04,SSW,207,1.0,4.0,52,0.00,,,0.00,,2013-10-24 06:12:00,
2013-10-24 01:42:00,61.0,43.0,30.04,SW,217,1.0,4.0,52,0.00,,,0.00,,2013-10-24 06:42:00,
2013-10-24 01:52:00,61.0,43.0,30.04,SW,225,1.0,4.0,52,0.00,,,0.00,,2013-10-24 06:52:00,
2013-10-24 02:52:00,61.0,43.0,30.05,SSW,210,1.0,4.0,52,0.00,,,0.00,,2013-10-24 07:52:00,
2013-10-24 03:11:00,61.0,44.0,30.05,SSW,204,1.0,4.0,53,0.00,,,0.00,,2013-10-24 08:11:00,
2013-10-24 03:22:00,60.0,43.0,30.05,SW,231,1.0,4.0,54,0.00,,,0.00,,2013-10-24 08:22:00,
2013-10-24 03:42:00,60.0,43.0,30.04,SSW,213,1.0,5.0,54,0.00,,,0.00,,2013-10-24 08:42:00,
2013-10-24 03:53:00,60.0,43.0,30.04,SSW,201,1.0,5.0,54,0.00,,,0.00,,2013-10-24 08:53:00,
2013-10-24 04:12:00,60.0,43.0,30.04,SW,224,2.0,4.0,54,0.00,,,0.00,,2013-10-24 09:12:00,
2013-10-24 04:22:00,60.0,43.0,30.04,SSW,209,1.0,3.0,54,0.00,,,0.00,,2013-10-24 09:22:00,
2013-10-24 04:53:00,59.0,44.0,30.04,SW,236,1.0,4.0,57,0.00,,,0.00,,2013-10-24 09:53:00,
2013-10-24 05:12:00,59.0,44.0,30.04,SSW,204,1.0,5.0,57,0.00,,,0.00,,2013-10-24 10:12:00,
2013-10-24 05:23:00,59.0,44.0,30.04,SW,218,0.0,3.0,58,0.00,,,0.00,,2013-10-24 10:23:00,
2013-10-24 05:43:00,58.0,44.0,30.04,ESE,103,0.0,5.0,59,0.00,,,0.00,,2013-10-24 10:43:00,
2013-10-24 05:52:00,59.0,44.0,30.04,SSW,204,1.0,4.0,58,0.00,,,0.00,,2013-10-24 10:52:00,
2013-10-24 06:12:00,59.0,44.0,30.05,WSW,252,0.0,4.0,58,0.00,,,0.00,,2013-10-24 11:12:00,
2013-10-24 06:21:00,58.0,43.0,30.06,SSE,159,0.0,5.0,58,0.00,,,0.00,,2013-10-24 11:21:00,
2013-10-24 06:22:00,58.0,43.0,30.05,WSW,248,1.0,5.0,58,0.00,,,0.00,,2013-10-24 11:22:00,
2013-10-24 06:42:00,58.0,44.0,30.05,SW,232,0.0,3.0,59,0.00,,,0.00,,2013-10-24 11:42:00,
2013-10-24 06:52:00,58.0,43.0,30.06,SSE,159,0.0,5.0,58,0.00,,,0.00,,2013-10-24 11:52:00,
2013-10-24 07:01:00,58.0,43.0,30.06,SSE,159,0.0,5.0,58,0.00,,,0.00,,2013-10-24 12:01:00,
2013-10-24 07:12:00,58.0,43.0,30.06,SSE,159,0.0,5.0,58,0.00,,,0.00,,2013-10-24 12:12:00,
2013-10-24 07:52:00,59.0,44.0,30.07,East,84,0.0,3.0,58,0.00,,,0.00,,2013-10-24 12:52:00,
2013-10-24 08:12:00,58.0,43.0,30.08,North,356,1.0,3.0,58,0.00,,,0.00,,2013-10-24 13:12:00,
2013-10-24 08:22:00,58.0,43.0,30.08,North,356,1.0,3.0,58,0.00,,,0.00,,2013-10-24 13:22:00,
2013-10-24 08:32:00,58.0,43.0,30.08,North,356,1.0,3.0,58,0.00,,,0.00,,2013-10-24 13:32:00,
2013-10-24 11:23:00,73.0,47.0,30.14,ESE,122,1.0,10.0,39,0.00,,,0.00,,2013-10-24 16:23:00,
2013-10-24 11:42:00,74.0,47.0,30.14,SSW,201,1.0,5.0,38,0.00,,,0.00,,2013-10-24 16:42:00,
2013-10-24 11:53:00,75.0,46.0,30.14,WSW,249,2.0,6.0,36,0.00,,,0.00,,2013-10-24 16:53:00,
2013-10-24 12:12:00,76.0,49.0,30.14,WSW,243,1.0,4.0,39,0.00,,,0.00,,2013-10-24 17:12:00,
2013-10-24 12:22:00,77.0,48.0,30.14,SW,235,1.0,5.0,36,0.00,,,0.00,,2013-10-24 17:22:00,
2013-10-24 12:43:00,78.0,50.0,30.13,East,101,0.0,5.0,37,0.00,,,0.00,,2013-10-24 17:43:00,
2013-10-24 12:52:00,78.0,49.0,30.12,WSW,247,1.0,3.0,36,0.00,,,0.00,,2013-10-24 17:52:00,
2013-10-24 13:02:00,78.0,49.0,30.12,WSW,247,1.0,3.0,36,0.00,,,0.00,,2013-10-24 18:02:00,
2013-10-24 13:12:00,78.0,49.0,30.12,WSW,247,1.0,3.0,36,0.00,,,0.00,,2013-10-24 18:12:00,
2013-10-24 13:23:00,79.0,49.0,30.12,South,176,1.0,4.0,35,0.00,,,0.00,,2013-10-24 18:23:00,
2013-10-24 13:42:00,79.0,48.0,30.11,SW,215,1.0,4.0,34,0.00,,,0.00,,2013-10-24 18:42:00,
2013-10-24 13:53:00,78.0,47.0,30.10,South,181,2.0,7.0,33,0.00,,,0.00,,2013-10-24 18:53:00,
2013-10-24 14:11:00,79.0,49.0,30.10,SSW,203,1.0,6.0,35,0.00,,,0.00,,2013-10-24 19:11:00,
2013-10-24 14:22:00,79.0,47.0,30.09,WSW,238,2.0,5.0,32,0.00,,,0.00,,2013-10-24 19:22:00,
2013-10-24 14:32:00,79.0,47.0,30.09,WSW,238,2.0,5.0,32,0.00,,,0.00,,2013-10-24 19:32:00,
2013-10-24 14:43:00,79.0,47.0,30.09,WSW,238,2.0,5.0,32,0.00,,,0.00,,2013-10-24 19:43:00,
2013-10-24 14:53:00,80.0,49.0,30.07,SSE,167,0.0,6.0,34,0.00,,,0.00,,2013-10-24 19:53:00,
2013-10-24 15:11:00,80.0,48.0,30.07,SSE,160,2.0,7.0,33,0.00,,,0.00,,2013-10-24 20:11:00,
2013-10-24 15:23:00,79.0,48.0,30.06,ESE,109,2.0,7.0,34,0.00,,,0.00,,2013-10-24 20:23:00,
2013-10-24 15:42:00,80.0,47.0,30.06,SE,125,2.0,5.0,32,0.00,,,0.00,,2013-10-24 20:42:00,
2013-10-24 15:53:00,80.0,48.0,30.06,SSE,165,2.0,8.0,33,0.00,,,0.00,,2013-10-24 20:53:00,
2013-10-24 16:12:00,80.0,47.0,30.06,South,190,1.0,4.0,32,0.00,,,0.00,,2013-10-24 21:12:00,
2013-10-24 16:22:00,80.0,47.0,30.06,ESE,117,3.0,6.0,31,0.00,,,0.00,,2013-10-24 21:22:00,
2013-10-24 16:43:00,79.0,47.0,30.06,South,191,1.0,5.0,32,0.00,,,0.00,,2013-10-24 21:43:00,
2013-10-24 16:53:00,78.0,47.0,30.05,SE,126,2.0,8.0,33,0.00,,,0.00,,2013-10-24 21:53:00,
2013-10-24 16:54:00,79.0,47.0,30.05,SSE,150,2.0,7.0,32,0.00,,,0.00,,2013-10-24 21:54:00,
2013-10-24 17:14:00,79.0,47.0,30.05,South,190,1.0,6.0,33,0.00,,,0.00,,2013-10-24 22:14:00,
2013-10-24 17:24:00,78.0,47.0,30.05,SE,126,2.0,8.0,33,0.00,,,0.00,,2013-10-24 22:24:00,
2013-10-24 17:34:00,78.0,47.0,30.05,SE,126,2.0,8.0,33,0.00,,,0.00,,2013-10-24 22:34:00,
2013-10-24 17:43:00,78.0,47.0,30.05,SE,126,2.0,8.0,33,0.00,,,0.00,,2013-10-24 22:43:00,
2013-10-24 18:13:00,75.0,48.0,30.05,SSW,200,1.0,8.0,38,0.00,,,0.00,,2013-10-24 23:13:00,
2013-10-24 18:22:00,74.0,49.0,30.05,SSW,211,0.0,5.0,41,0.00,,,0.00,,2013-10-24 23:22:00,
2013-10-24 18:43:00,73.0,47.0,30.06,SSE,150,0.0,4.0,40,0.00,,,0.00,,2013-10-24 23:43:00,
2013-10-24 18:53:00,72.0,48.0,30.06,South,174,1.0,3.0,42,0.00,,,0.00,,2013-10-24 23:53:00,
2013-10-24 19:12:00,71.0,49.0,30.06,SSW,212,0.0,2.0,45,0.00,,,0.00,,2013-10-25 00:12:00,
2013-10-24 19:22:00,69.0,48.0,30.06,SW,234,0.0,1.0,47,0.00,,,0.00,,2013-10-25 00:22:00,
2013-10-24 19:33:00,69.0,48.0,30.06,SW,234,0.0,1.0,47,0.00,,,0.00,,2013-10-25 00:33:00,
2013-10-24 19:42:00,69.0,48.0,30.06,SW,234,0.0,1.0,47,0.00,,,0.00,,2013-10-25 00:42:00,
2013-10-24 19:52:00,66.0,48.0,30.07,SW,224,0.0,1.0,53,0.00,,,0.00,,2013-10-25 00:52:00,
2013-10-24 20:12:00,65.0,49.0,30.08,SW,224,0.0,1.0,56,0.00,,,0.00,,2013-10-25 01:12:00,
2013-10-24 20:21:00,65.0,49.0,30.08,SW,217,0.0,1.0,57,0.00,,,0.00,,2013-10-25 01:21:00,
2013-10-24 20:43:00,65.0,50.0,30.09,SSW,212,1.0,2.0,58,0.00,,,0.00,,2013-10-25 01:43:00,
2013-10-24 20:53:00,65.0,50.0,30.09,South,184,0.0,2.0,58,0.00,,,0.00,,2013-10-25 01:53:00,
2013-10-24 21:02:00,65.0,50.0,30.09,South,184,0.0,2.0,58,0.00,,,0.00,,2013-10-25 02:02:00,
2013-10-24 21:12:00,65.0,50.0,30.09,South,184,0.0,2.0,58,0.00,,,0.00,,2013-10-25 02:12:00,
2013-10-24 21:23:00,65.0,50.0,30.10,SW,232,1.0,3.0,58,0.00,,,0.00,,2013-10-25 02:23:00,
2013-10-24 21:42:00,65.0,49.0,30.10,SW,217,1.0,3.0,57,0.00,,,0.00,,2013-10-25 02:42:00,
2013-10-24 21:52:00,65.0,49.0,30.10,SW,217,1.0,3.0,57,0.00,,,0.00,,2013-10-25 02:52:00,
2013-10-24 22:03:00,65.0,49.0,30.10,SW,217,1.0,3.0,57,0.00,,,0.00,,2013-10-25 03:03:00,
2013-10-24 22:54:00,66.0,50.0,30.12,SSW,204,2.0,4.0,57,0.00,,,0.00,,2013-10-25 03:54:00,
2013-10-24 23:14:00,65.0,50.0,30.12,SW,235,1.0,4.0,59,0.00,,,0.00,,2013-10-25 04:14:00,
2013-10-24 23:24:00,65.0,50.0,30.13,SW,225,1.0,4.0,59,0.00,,,0.00,,2013-10-25 04:24:00,
2013-10-24 23:44:00,65.0,51.0,30.13,SW,228,1.0,4.0,60,0.00,,,0.00,,2013-10-25 04:44:00,